Time,TemperatureF,DewpointF,PressureIn,WindDirection,WindDirectionDegrees,WindSpeedMPH,WindSpeedGustMPH,Humidity,HourlyPrecipIn,Conditions,Clouds,dailyrainin,SolarRadiationWatts/m^2,SoftwareType,DateUTC
2013-01-07 00:12:00,18.0,16.0,-100.00,SE,124,0.0,2.0,93,0.00,,,0.00,0.000000,,2013-01-07 08:12:00,
2013-01-07 00:22:00,18.0,16.0,-100.00,SE,124,0.0,2.0,93,0.00,,,0.00,0.000000,,2013-01-07 08:22:00,
2013-01-07 00:32:00,18.0,16.0,-100.00,SE,124,0.0,2.0,93,0.00,,,0.00,0.000000,,2013-01-07 08:32:00,
2013-01-07 00:42:00,18.0,16.0,-100.00,SE,124,0.0,2.0,93,0.00,,,0.00,0.000000,,2013-01-07 08:42:00,
2013-01-07 00:52:00,18.0,16.0,-100.00,SE,124,0.0,2.0,93,0.00,,,0.00,0.000000,,2013-01-07 08:52:00,
2013-01-07 01:22:00,18.0,17.0,-100.00,NE,51,2.0,4.0,94,0.00,,,0.00,0.000000,,2013-01-07 09:22:00,
2013-01-07 01:32:00,18.0,17.0,-100.00,NE,51,2.0,4.0,94,0.00,,,0.00,0.000000,,2013-01-07 09:32:00,
2013-01-07 01:42:00,18.0,17.0,-100.00,NE,51,2.0,4.0,94,0.00,,,0.00,0.000000,,2013-01-07 09:42:00,
2013-01-07 01:52:00,18.0,17.0,-100.00,NE,51,2.0,4.0,94,0.00,,,0.00,0.000000,,2013-01-07 09:52:00,
2013-01-07 02:12:00,19.0,18.0,-100.00,ESE,105,7.0,10.0,94,0.00,,,0.00,0.000000,,2013-01-07 10:12:00,
2013-01-07 02:22:00,19.0,18.0,-100.00,ESE,105,7.0,10.0,94,0.00,,,0.00,0.000000,,2013-01-07 10:22:00,
2013-01-07 02:32:00,19.0,18.0,-100.00,ESE,105,7.0,10.0,94,0.00,,,0.00,0.000000,,2013-01-07 10:32:00,
2013-01-07 02:42:00,19.0,18.0,-100.00,ESE,105,7.0,10.0,94,0.00,,,0.00,0.000000,,2013-01-07 10:42:00,
2013-01-07 02:52:00,19.0,18.0,-100.00,ESE,105,7.0,10.0,94,0.00,,,0.00,0.000000,,2013-01-07 10:52:00,
2013-01-07 03:12:00,18.0,16.0,-100.00,ESE,106,6.0,10.0,92,0.00,,,0.00,0.000000,,2013-01-07 11:12:00,
2013-01-07 03:22:00,18.0,16.0,-100.00,ESE,106,6.0,10.0,92,0.00,,,0.00,0.000000,,2013-01-07 11:22:00,
2013-01-07 03:32:00,18.0,16.0,-100.00,ESE,106,6.0,10.0,92,0.00,,,0.00,0.000000,,2013-01-07 11:32:00,
2013-01-07 03:42:00,18.0,16.0,-100.00,ESE,106,6.0,10.0,92,0.00,,,0.00,0.000000,,2013-01-07 11:42:00,
2013-01-07 03:52:00,18.0,16.0,-100.00,ESE,106,6.0,10.0,92,0.00,,,0.00,0.000000,,2013-01-07 11:52:00,
2013-01-07 04:12:00,18.0,16.0,-100.00,ESE,121,5.0,10.0,92,0.00,,,0.00,0.000000,,2013-01-07 12:12:00,
2013-01-07 04:22:00,18.0,16.0,-100.00,ESE,121,5.0,10.0,92,0.00,,,0.00,0.000000,,2013-01-07 12:22:00,
2013-01-07 04:32:00,18.0,16.0,-100.00,ESE,121,5.0,10.0,92,0.00,,,0.00,0.000000,,2013-01-07 12:32:00,
2013-01-07 04:43:00,18.0,16.0,-100.00,ESE,121,5.0,10.0,92,0.00,,,0.00,0.000000,,2013-01-07 12:43:00,
2013-01-07 04:52:00,18.0,16.0,-100.00,ESE,121,5.0,10.0,92,0.00,,,0.00,0.000000,,2013-01-07 12:52:00,
2013-01-07 05:23:00,17.0,15.0,-100.00,ESE,104,5.0,11.0,91,0.00,,,0.00,0.000000,,2013-01-07 13:23:00,
2013-01-07 05:33:00,17.0,15.0,-100.00,ESE,104,5.0,11.0,91,0.00,,,0.00,0.000000,,2013-01-07 13:33:00,
2013-01-07 05:42:00,17.0,15.0,-100.00,ESE,104,5.0,11.0,91,0.00,,,0.00,0.000000,,2013-01-07 13:42:00,
2013-01-07 05:52:00,17.0,15.0,-100.00,ESE,104,5.0,11.0,91,0.00,,,0.00,0.000000,,2013-01-07 13:52:00,
2013-01-07 05:53:00,15.0,13.0,-100.00,ESE,117,4.0,10.0,90,0.00,,,0.00,0.000000,,2013-01-07 13:53:00,
2013-01-07 06:22:00,15.0,13.0,-100.00,ESE,117,4.0,10.0,90,0.00,,,0.00,0.000000,,2013-01-07 14:22:00,
2013-01-07 06:33:00,15.0,13.0,-100.00,ESE,117,4.0,10.0,90,0.00,,,0.00,0.000000,,2013-01-07 14:33:00,
2013-01-07 06:42:00,15.0,13.0,-100.00,ESE,117,4.0,10.0,90,0.00,,,0.00,0.000000,,2013-01-07 14:42:00,
2013-01-07 07:12:00,15.0,12.0,-100.00,ESE,118,5.0,10.0,89,0.00,,,0.00,0.000000,,2013-01-07 15:12:00,
2013-01-07 07:22:00,15.0,12.0,-100.00,ESE,118,5.0,10.0,89,0.00,,,0.00,0.000000,,2013-01-07 15:22:00,
2013-01-07 07:33:00,15.0,12.0,-100.00,ESE,118,5.0,10.0,89,0.00,,,0.00,0.000000,,2013-01-07 15:33:00,
2013-01-07 07:42:00,15.0,12.0,-100.00,ESE,118,5.0,10.0,89,0.00,,,0.00,0.000000,,2013-01-07 15:42:00,
2013-01-07 07:52:00,15.0,12.0,-100.00,ESE,118,5.0,10.0,89,0.00,,,0.00,0.000000,,2013-01-07 15:52:00,
2013-01-07 08:12:00,19.0,16.0,-100.00,ESE,110,5.0,13.0,86,0.00,,,0.00,24.000000,,2013-01-07 16:12:00,
2013-01-07 08:22:00,19.0,16.0,-100.00,ESE,110,5.0,13.0,86,0.00,,,0.00,24.000000,,2013-01-07 16:22:00,
2013-01-07 08:33:00,19.0,16.0,-100.00,ESE,110,5.0,13.0,86,0.00,,,0.00,24.000000,,2013-01-07 16:33:00,
2013-01-07 08:42:00,19.0,16.0,-100.00,ESE,110,5.0,13.0,86,0.00,,,0.00,24.000000,,2013-01-07 16:42:00,
2013-01-07 08:52:00,19.0,16.0,-100.00,ESE,110,5.0,13.0,86,0.00,,,0.00,24.000000,,2013-01-07 16:52:00,
2013-01-07 09:12:00,17.0,14.0,-100.00,SE,132,7.0,16.0,86,0.00,,,0.00,15.000000,,2013-01-07 17:12:00,
2013-01-07 09:22:00,17.0,14.0,-100.00,SE,132,7.0,16.0,86,0.00,,,0.00,15.000000,,2013-01-07 17:22:00,
2013-01-07 09:32:00,17.0,14.0,-100.00,SE,132,7.0,16.0,86,0.00,,,0.00,15.000000,,2013-01-07 17:32:00,
2013-01-07 09:42:00,17.0,14.0,-100.00,SE,132,7.0,16.0,86,0.00,,,0.00,15.000000,,2013-01-07 17:42:00,
2013-01-07 09:52:00,17.0,14.0,-100.00,SE,132,7.0,16.0,86,0.00,,,0.00,15.000000,,2013-01-07 17:52:00,
2013-01-07 10:12:00,19.0,16.0,-100.00,South,174,6.0,19.0,87,0.00,,,0.00,25.000000,,2013-01-07 18:12:00,
2013-01-07 10:23:00,19.0,16.0,-100.00,South,174,6.0,19.0,87,0.00,,,0.00,25.000000,,2013-01-07 18:23:00,
2013-01-07 10:32:00,19.0,16.0,-100.00,South,174,6.0,19.0,87,0.00,,,0.00,25.000000,,2013-01-07 18:32:00,
2013-01-07 10:42:00,19.0,16.0,-100.00,South,174,6.0,19.0,87,0.00,,,0.00,25.000000,,2013-01-07 18:42:00,
2013-01-07 10:52:00,19.0,16.0,-100.00,South,174,6.0,19.0,87,0.00,,,0.00,25.000000,,2013-01-07 18:52:00,
2013-01-07 11:12:00,21.0,16.0,-100.00,SE,136,8.0,17.0,80,0.00,,,0.00,39.000000,,2013-01-07 19:12:00,
2013-01-07 11:22:00,21.0,16.0,-100.00,SE,136,8.0,17.0,80,0.00,,,0.00,39.000000,,2013-01-07 19:22:00,
2013-01-07 11:33:00,21.0,16.0,-100.00,SE,136,8.0,17.0,80,0.00,,,0.00,39.000000,,2013-01-07 19:33:00,
2013-01-07 11:42:00,21.0,16.0,-100.00,SE,136,8.0,17.0,80,0.00,,,0.00,39.000000,,2013-01-07 19:42:00,
2013-01-07 11:52:00,21.0,16.0,-100.00,SE,136,8.0,17.0,80,0.00,,,0.00,39.000000,,2013-01-07 19:52:00,
2013-01-07 12:12:00,30.0,17.0,-100.00,ESE,111,10.0,17.0,59,0.00,,,0.00,163.000000,,2013-01-07 20:12:00,
2013-01-07 12:22:00,30.0,17.0,-100.00,ESE,111,10.0,17.0,59,0.00,,,0.00,163.000000,,2013-01-07 20:22:00,
2013-01-07 12:33:00,30.0,17.0,-100.00,ESE,111,10.0,17.0,59,0.00,,,0.00,163.000000,,2013-01-07 20:33:00,
2013-01-07 12:42:00,30.0,17.0,-100.00,ESE,111,10.0,17.0,59,0.00,,,0.00,163.000000,,2013-01-07 20:42:00,
2013-01-07 12:52:00,30.0,17.0,-100.00,ESE,111,10.0,17.0,59,0.00,,,0.00,163.000000,,2013-01-07 20:52:00,
2013-01-07 13:12:00,31.0,15.0,-100.00,ESE,105,11.0,19.0,50,0.08,,,0.08,200.000000,,2013-01-07 21:12:00,
2013-01-07 13:22:00,31.0,15.0,-100.00,ESE,105,11.0,19.0,50,0.08,,,0.08,200.000000,,2013-01-07 21:22:00,
2013-01-07 13:32:00,31.0,15.0,-100.00,ESE,105,11.0,19.0,50,0.08,,,0.08,200.000000,,2013-01-07 21:32:00,
2013-01-07 13:42:00,31.0,15.0,-100.00,ESE,105,11.0,19.0,50,0.08,,,0.08,200.000000,,2013-01-07 21:42:00,
2013-01-07 13:52:00,31.0,15.0,-100.00,ESE,105,11.0,19.0,50,0.08,,,0.08,200.000000,,2013-01-07 21:52:00,
2013-01-07 14:12:00,32.0,13.0,-100.00,ESE,117,9.0,19.0,44,0.01,,,0.09,205.000000,,2013-01-07 22:12:00,
2013-01-07 14:22:00,32.0,13.0,-100.00,ESE,117,9.0,19.0,44,0.01,,,0.09,205.000000,,2013-01-07 22:22:00,
2013-01-07 14:33:00,32.0,13.0,-100.00,ESE,117,9.0,19.0,44,0.01,,,0.09,205.000000,,2013-01-07 22:33:00,
2013-01-07 14:42:00,32.0,13.0,-100.00,ESE,117,9.0,19.0,44,0.01,,,0.09,205.000000,,2013-01-07 22:42:00,
2013-01-07 14:52:00,32.0,13.0,-100.00,ESE,117,9.0,19.0,44,0.01,,,0.09,205.000000,,2013-01-07 22:52:00,
2013-01-07 15:22:00,29.0,10.0,-100.00,ESE,103,9.0,18.0,44,0.00,,,0.09,132.000000,,2013-01-07 23:22:00,
2013-01-07 15:32:00,29.0,10.0,-100.00,ESE,103,9.0,18.0,44,0.00,,,0.09,132.000000,,2013-01-07 23:32:00,
2013-01-07 15:42:00,29.0,10.0,-100.00,ESE,103,9.0,18.0,44,0.00,,,0.09,132.000000,,2013-01-07 23:42:00,
2013-01-07 15:52:00,29.0,10.0,-100.00,ESE,103,9.0,18.0,44,0.00,,,0.09,132.000000,,2013-01-07 23:52:00,
2013-01-07 16:22:00,26.0,8.0,-100.00,NW,306,6.0,17.0,45,0.00,,,0.09,25.000000,,2013-01-08 00:22:00,
2013-01-07 16:32:00,26.0,8.0,-100.00,NW,306,6.0,17.0,45,0.00,,,0.09,25.000000,,2013-01-08 00:32:00,
2013-01-07 16:42:00,26.0,8.0,-100.00,NW,306,6.0,17.0,45,0.00,,,0.09,25.000000,,2013-01-08 00:42:00,
2013-01-07 16:52:00,26.0,8.0,-100.00,NW,306,6.0,17.0,45,0.00,,,0.09,25.000000,,2013-01-08 00:52:00,
2013-01-07 17:12:00,26.0,4.0,-100.00,WNW,286,7.0,19.0,38,0.00,,,0.09,10.000000,,2013-01-08 01:12:00,
2013-01-07 17:22:00,26.0,4.0,-100.00,WNW,286,7.0,19.0,38,0.00,,,0.09,10.000000,,2013-01-08 01:22:00,
2013-01-07 17:32:00,26.0,4.0,-100.00,WNW,286,7.0,19.0,38,0.00,,,0.09,10.000000,,2013-01-08 01:32:00,
2013-01-07 17:42:00,26.0,4.0,-100.00,WNW,286,7.0,19.0,38,0.00,,,0.09,10.000000,,2013-01-08 01:42:00,
2013-01-07 17:52:00,26.0,4.0,-100.00,WNW,286,7.0,19.0,38,0.00,,,0.09,10.000000,,2013-01-08 01:52:00,
2013-01-07 18:12:00,26.0,5.0,-100.00,ESE,109,8.0,15.0,40,0.00,,,0.09,1.000000,,2013-01-08 02:12:00,
2013-01-07 18:22:00,26.0,5.0,-100.00,ESE,109,8.0,15.0,40,0.00,,,0.09,1.000000,,2013-01-08 02:22:00,
2013-01-07 18:32:00,26.0,5.0,-100.00,ESE,109,8.0,15.0,40,0.00,,,0.09,1.000000,,2013-01-08 02:32:00,
2013-01-07 18:42:00,26.0,5.0,-100.00,ESE,109,8.0,15.0,40,0.00,,,0.09,1.000000,,2013-01-08 02:42:00,
2013-01-07 18:52:00,26.0,5.0,-100.00,ESE,109,8.0,15.0,40,0.00,,,0.09,1.000000,,2013-01-08 02:52:00,
2013-01-07 19:12:00,26.0,6.0,-100.00,SE,141,4.0,14.0,41,0.00,,,0.09,0.000000,,2013-01-08 03:12:00,
2013-01-07 19:22:00,26.0,6.0,-100.00,SE,141,4.0,14.0,41,0.00,,,0.09,0.000000,,2013-01-08 03:22:00,
2013-01-07 19:32:00,26.0,6.0,-100.00,SE,141,4.0,14.0,41,0.00,,,0.09,0.000000,,2013-01-08 03:32:00,
2013-01-07 19:42:00,26.0,6.0,-100.00,SE,141,4.0,14.0,41,0.00,,,0.09,0.000000,,2013-01-08 03:42:00,
2013-01-07 19:52:00,26.0,6.0,-100.00,SE,141,4.0,14.0,41,0.00,,,0.09,0.000000,,2013-01-08 03:52:00,
2013-01-07 20:22:00,27.0,6.0,-100.00,West,278,5.0,11.0,40,0.00,,,0.09,0.000000,,2013-01-08 04:22:00,
2013-01-07 20:32:00,27.0,6.0,-100.00,West,278,5.0,11.0,40,0.00,,,0.09,0.000000,,2013-01-08 04:32:00,
2013-01-07 20:42:00,27.0,6.0,-100.00,West,278,5.0,11.0,40,0.00,,,0.09,0.000000,,2013-01-08 04:42:00,
2013-01-07 20:52:00,27.0,6.0,-100.00,West,278,5.0,11.0,40,0.00,,,0.09,0.000000,,2013-01-08 04:52:00,
2013-01-07 21:12:00,26.0,4.0,-100.00,NW,311,2.0,15.0,39,0.00,,,0.09,0.000000,,2013-01-08 05:12:00,
2013-01-07 21:22:00,26.0,4.0,-100.00,NW,311,2.0,15.0,39,0.00,,,0.09,0.000000,,2013-01-08 05:22:00,
2013-01-07 21:33:00,26.0,4.0,-100.00,NW,311,2.0,15.0,39,0.00,,,0.09,0.000000,,2013-01-08 05:33:00,
2013-01-07 21:42:00,26.0,4.0,-100.00,NW,311,2.0,15.0,39,0.00,,,0.09,0.000000,,2013-01-08 05:42:00,
2013-01-07 21:52:00,26.0,4.0,-100.00,NW,311,2.0,15.0,39,0.00,,,0.09,0.000000,,2013-01-08 05:52:00,
2013-01-07 22:12:00,28.0,3.0,-100.00,NW,305,5.0,11.0,34,0.00,,,0.09,0.000000,,2013-01-08 06:12:00,
2013-01-07 22:22:00,28.0,3.0,-100.00,NW,305,5.0,11.0,34,0.00,,,0.09,0.000000,,2013-01-08 06:22:00,
2013-01-07 22:32:00,28.0,3.0,-100.00,NW,305,5.0,11.0,34,0.00,,,0.09,0.000000,,2013-01-08 06:32:00,
2013-01-07 22:42:00,28.0,3.0,-100.00,NW,305,5.0,11.0,34,0.00,,,0.09,0.000000,,2013-01-08 06:42:00,
2013-01-07 22:52:00,28.0,3.0,-100.00,NW,305,5.0,11.0,34,0.00,,,0.09,0.000000,,2013-01-08 06:52:00,
2013-01-07 23:12:00,29.0,-1.0,-100.00,East,90,4.0,12.0,27,0.00,,,0.09,0.000000,,2013-01-08 07:12:00,
2013-01-07 23:22:00,29.0,-1.0,-100.00,East,90,4.0,12.0,27,0.00,,,0.09,0.000000,,2013-01-08 07:22:00,
2013-01-07 23:32:00,29.0,-1.0,-100.00,East,90,4.0,12.0,27,0.00,,,0.09,0.000000,,2013-01-08 07:32:00,
2013-01-07 23:42:00,29.0,-1.0,-100.00,East,90,4.0,12.0,27,0.00,,,0.09,0.000000,,2013-01-08 07:42:00,
2013-01-07 23:52:00,29.0,-1.0,-100.00,East,90,4.0,12.0,27,0.00,,,0.09,0.000000,,2013-01-08 07:52:00,